Time,TemperatureF,DewpointF,PressureIn,WindDirection,WindDirectionDegrees,WindSpeedMPH,WindSpeedGustMPH,Humidity,HourlyPrecipIn,Conditions,Clouds,dailyrainin,SolarRadiationWatts/m^2,SoftwareType,DateUTC
2017-02-19 00:00:00,58.9,54.1,29.80,NE,48,0.0,0.0,84,0.00,,,0.00,0,Wunderground v.1.15,2017-02-19 06:00:00,
2017-02-19 00:10:00,58.0,53.5,29.80,East,84,1.0,1.0,85,0.00,,,0.00,0,Wunderground v.1.15,2017-02-19 06:10:00,
2017-02-19 00:20:00,58.2,53.7,29.80,SW,225,0.0,0.0,85,0.00,,,0.00,0,Wunderground v.1.15,2017-02-19 06:20:00,
2017-02-19 00:25:00,58.0,53.8,29.80,ENE,74,0.0,0.0,86,0.00,,,0.00,0,Wunderground v.1.15,2017-02-19 06:25:00,
2017-02-19 00:30:00,57.9,53.7,29.80,ENE,74,0.0,0.0,86,0.00,,,0.00,0,Wunderground v.1.15,2017-02-19 06:30:00,
2017-02-19 00:35:00,58.0,53.8,29.80,ENE,75,0.0,0.0,86,0.00,,,0.00,0,Wunderground v.1.15,2017-02-19 06:35:00,
2017-02-19 00:40:00,58.0,53.8,29.80,ENE,68,0.0,0.0,86,0.00,,,0.00,0,Wunderground v.1.15,2017-02-19 06:40:00,
2017-02-19 00:45:00,58.1,54.2,29.80,ENE,69,0.0,0.0,87,0.00,,,0.00,0,Wunderground v.1.15,2017-02-19 06:45:00,
2017-02-19 00:55:00,58.0,54.2,29.80,East,90,0.0,0.0,87,0.00,,,0.00,0,Wunderground v.1.15,2017-02-19 06:55:00,
2017-02-19 01:00:00,58.1,54.2,29.80,East,101,0.0,0.0,87,0.00,,,0.00,0,Wunderground v.1.15,2017-02-19 07:00:00,
2017-02-19 01:05:00,58.1,54.2,29.81,ESE,104,0.0,0.0,87,0.00,,,0.00,0,Wunderground v.1.15,2017-02-19 07:05:00,
2017-02-19 01:15:00,58.0,54.2,29.80,ESE,107,0.0,0.0,87,0.00,,,0.00,0,Wunderground v.1.15,2017-02-19 07:15:00,
2017-02-19 01:25:00,57.8,54.0,29.81,ESE,109,0.0,0.0,87,0.00,,,0.00,0,Wunderground v.1.15,2017-02-19 07:25:00,
2017-02-19 01:30:00,57.6,53.8,29.80,ESE,109,0.0,0.0,87,0.00,,,0.00,0,Wunderground v.1.15,2017-02-19 07:30:00,
2017-02-19 01:40:00,56.8,53.0,29.81,SSW,199,0.0,0.0,87,0.00,,,0.00,0,Wunderground v.1.15,2017-02-19 07:40:00,
2017-02-19 01:45:00,56.5,52.7,29.81,SSE,158,0.0,0.0,87,0.00,,,0.00,0,Wunderground v.1.15,2017-02-19 07:45:00,
2017-02-19 01:50:00,56.5,52.7,29.81,SE,136,0.0,0.0,87,0.00,,,0.00,0,Wunderground v.1.15,2017-02-19 07:50:00,
2017-02-19 01:55:00,56.4,52.6,29.81,SE,140,0.0,1.0,87,0.00,,,0.00,0,Wunderground v.1.15,2017-02-19 07:55:00,
2017-02-19 02:00:00,56.4,52.9,29.81,ESE,121,0.0,0.0,88,0.00,,,0.00,0,Wunderground v.1.15,2017-02-19 08:00:00,
2017-02-19 02:05:00,56.4,52.9,29.81,ESE,103,0.0,0.0,88,0.00,,,0.00,0,Wunderground v.1.15,2017-02-19 08:05:00,
2017-02-19 02:10:00,56.4,52.9,29.81,ESE,103,0.0,0.0,88,0.00,,,0.00,0,Wunderground v.1.15,2017-02-19 08:10:00,
2017-02-19 02:15:00,56.4,52.9,29.81,ESE,103,0.0,0.0,88,0.00,,,0.00,0,Wunderground v.1.15,2017-02-19 08:15:00,
2017-02-19 02:20:00,56.4,52.9,29.81,ESE,103,0.0,0.0,88,0.00,,,0.00,0,Wunderground v.1.15,2017-02-19 08:20:00,
2017-02-19 02:30:00,56.3,52.8,29.80,ESE,103,0.0,0.0,88,0.00,,,0.00,0,Wunderground v.1.15,2017-02-19 08:30:00,
2017-02-19 02:35:00,56.2,52.7,29.81,SE,130,0.0,0.0,88,0.00,,,0.00,0,Wunderground v.1.15,2017-02-19 08:35:00,
2017-02-19 02:45:00,56.0,52.5,29.81,SSE,160,0.0,0.0,88,0.00,,,0.00,0,Wunderground v.1.15,2017-02-19 08:45:00,
2017-02-19 02:50:00,55.9,52.4,29.81,SSE,160,0.0,0.0,88,0.00,,,0.00,0,Wunderground v.1.15,2017-02-19 08:50:00,
2017-02-19 03:00:00,55.7,52.5,29.82,SSE,166,0.0,0.0,89,0.00,,,0.00,0,Wunderground v.1.15,2017-02-19 09:00:00,
2017-02-19 03:05:00,55.5,52.3,29.81,SSW,193,0.0,0.0,89,0.00,,,0.00,0,Wunderground v.1.15,2017-02-19 09:05:00,
2017-02-19 03:10:00,55.4,52.2,29.81,SE,132,0.0,0.0,89,0.00,,,0.00,0,Wunderground v.1.15,2017-02-19 09:10:00,
2017-02-19 03:15:00,55.2,52.0,29.82,SE,140,0.0,0.0,89,0.00,,,0.00,0,Wunderground v.1.15,2017-02-19 09:15:00,
2017-02-19 03:20:00,55.1,51.9,29.81,SE,132,0.0,0.0,89,0.00,,,0.00,0,Wunderground v.1.15,2017-02-19 09:20:00,
2017-02-19 03:25:00,55.1,52.2,29.81,East,96,0.0,0.0,90,0.00,,,0.00,0,Wunderground v.1.15,2017-02-19 09:25:00,
2017-02-19 03:35:00,55.0,52.1,29.81,East,94,0.0,0.0,90,0.00,,,0.00,0,Wunderground v.1.15,2017-02-19 09:35:00,
2017-02-19 03:45:00,55.2,52.3,29.81,ESE,103,1.0,2.0,90,0.00,,,0.00,0,Wunderground v.1.15,2017-02-19 09:45:00,
2017-02-19 03:50:00,55.4,52.5,29.81,ESE,103,1.0,5.0,90,0.00,,,0.00,0,Wunderground v.1.15,2017-02-19 09:50:00,
2017-02-19 04:05:00,56.3,53.7,29.81,ESE,114,1.0,1.0,91,0.00,,,0.00,0,Wunderground v.1.15,2017-02-19 10:05:00,
2017-02-19 04:10:00,56.8,54.2,29.81,ESE,107,1.0,1.0,91,0.00,,,0.00,0,Wunderground v.1.15,2017-02-19 10:10:00,
2017-02-19 04:15:00,57.2,54.6,29.81,SE,128,0.0,0.0,91,0.00,,,0.00,0,Wunderground v.1.15,2017-02-19 10:15:00,
2017-02-19 04:20:00,57.4,54.8,29.81,ESE,111,0.0,0.0,91,0.00,,,0.00,0,Wunderground v.1.15,2017-02-19 10:20:00,
2017-02-19 04:25:00,57.4,54.8,29.81,ESE,111,0.0,0.0,91,0.00,,,0.00,0,Wunderground v.1.15,2017-02-19 10:25:00,
2017-02-19 04:30:00,57.5,54.9,29.82,SE,138,0.0,0.0,91,0.00,,,0.00,0,Wunderground v.1.15,2017-02-19 10:30:00,
2017-02-19 04:40:00,57.7,55.1,29.81,ENE,76,0.0,0.0,91,0.00,,,0.00,0,Wunderground v.1.15,2017-02-19 10:40:00,
2017-02-19 04:45:00,57.7,55.1,29.81,ENE,73,0.0,0.0,91,0.00,,,0.00,0,Wunderground v.1.15,2017-02-19 10:45:00,
2017-02-19 04:50:00,57.8,55.2,29.81,ENE,73,0.0,0.0,91,0.00,,,0.00,0,Wunderground v.1.15,2017-02-19 10:50:00,
2017-02-19 04:55:00,58.0,55.4,29.81,SE,136,0.0,0.0,91,0.00,,,0.00,0,Wunderground v.1.15,2017-02-19 10:55:00,
2017-02-19 05:05:00,58.6,56.0,29.81,SE,135,1.0,1.0,91,0.00,,,0.00,0,Wunderground v.1.15,2017-02-19 11:05:00,
2017-02-19 05:10:00,58.9,56.6,29.82,SE,130,1.0,1.0,92,0.00,,,0.00,0,Wunderground v.1.15,2017-02-19 11:10:00,
2017-02-19 05:20:00,59.4,56.8,29.82,SE,144,1.0,1.0,91,0.00,,,0.00,0,Wunderground v.1.15,2017-02-19 11:20:00,
2017-02-19 05:25:00,59.7,57.1,29.82,SE,136,2.0,5.0,91,0.00,,,0.00,0,Wunderground v.1.15,2017-02-19 11:25:00,
2017-02-19 05:35:00,59.9,57.3,29.83,SE,137,2.0,7.0,91,0.00,,,0.00,0,Wunderground v.1.15,2017-02-19 11:35:00,
2017-02-19 05:45:00,59.9,57.3,29.83,SE,138,7.0,7.0,91,0.00,,,0.00,0,Wunderground v.1.15,2017-02-19 11:45:00,
2017-02-19 05:50:00,59.7,56.8,29.84,SE,139,7.0,9.0,90,0.00,,,0.00,0,Wunderground v.1.15,2017-02-19 11:50:00,
2017-02-19 05:55:00,59.8,57.2,29.84,SE,141,7.0,9.0,91,0.00,,,0.00,0,Wunderground v.1.15,2017-02-19 11:55:00,
2017-02-19 06:00:00,59.9,57.3,29.84,SE,146,6.0,7.0,91,0.00,,,0.00,0,Wunderground v.1.15,2017-02-19 12:00:00,
2017-02-19 06:05:00,59.9,57.3,29.84,SE,136,7.0,7.0,91,0.00,,,0.00,0,Wunderground v.1.15,2017-02-19 12:05:00,
2017-02-19 06:15:00,60.2,57.9,29.84,SE,143,7.0,9.0,92,0.00,,,0.00,0,Wunderground v.1.15,2017-02-19 12:15:00,
2017-02-19 06:25:00,60.4,58.1,29.83,SE,144,7.0,8.0,92,0.00,,,0.00,0,Wunderground v.1.15,2017-02-19 12:25:00,
2017-02-19 06:30:00,60.4,58.1,29.84,SE,142,7.0,7.0,92,0.00,,,0.00,0,Wunderground v.1.15,2017-02-19 12:30:00,
2017-02-19 06:35:00,60.3,58.0,29.84,SE,134,6.0,7.0,92,0.00,,,0.00,0,Wunderground v.1.15,2017-02-19 12:35:00,
2017-02-19 06:45:00,60.0,57.7,29.83,SE,142,5.0,5.0,92,0.00,,,0.00,0,Wunderground v.1.15,2017-02-19 12:45:00,
2017-02-19 06:50:00,59.8,57.5,29.83,SSE,153,6.0,6.0,92,0.00,,,0.00,0,Wunderground v.1.15,2017-02-19 12:50:00,
2017-02-19 06:55:00,59.6,57.3,29.83,SE,145,6.0,7.0,92,0.00,,,0.00,0,Wunderground v.1.15,2017-02-19 12:55:00,
2017-02-19 07:00:00,59.4,57.1,29.84,ESE,121,6.0,7.0,92,0.00,,,0.00,0,Wunderground v.1.15,2017-02-19 13:00:00,
2017-02-19 07:05:00,59.3,57.0,29.84,SE,136,6.0,7.0,92,0.00,,,0.00,0,Wunderground v.1.15,2017-02-19 13:05:00,
2017-02-19 07:10:00,59.1,57.1,29.84,SE,124,5.0,5.0,93,0.00,,,0.00,5,Wunderground v.1.15,2017-02-19 13:10:00,
2017-02-19 07:20:00,59.0,57.0,29.84,SE,137,4.0,4.0,93,0.00,,,0.00,14,Wunderground v.1.15,2017-02-19 13:20:00,
2017-02-19 07:25:00,59.0,57.0,29.85,SE,140,3.0,4.0,93,0.00,,,0.00,19,Wunderground v.1.15,2017-02-19 13:25:00,
2017-02-19 07:35:00,59.0,57.0,29.85,SE,134,3.0,4.0,93,0.00,,,0.00,39,Wunderground v.1.15,2017-02-19 13:35:00,
2017-02-19 07:45:00,59.2,57.2,29.86,SE,144,3.0,3.0,93,0.00,,,0.00,33,Wunderground v.1.15,2017-02-19 13:45:00,
2017-02-19 07:50:00,59.3,57.3,29.86,SE,142,4.0,4.0,93,0.00,,,0.00,40,Wunderground v.1.15,2017-02-19 13:50:00,
2017-02-19 08:00:00,59.7,58.0,29.87,SE,137,4.0,5.0,94,0.00,,,0.00,58,Wunderground v.1.15,2017-02-19 14:00:00,
2017-02-19 08:05:00,59.9,58.2,29.87,ESE,117,4.0,5.0,94,0.00,,,0.00,72,Wunderground v.1.15,2017-02-19 14:05:00,
2017-02-19 08:10:00,60.0,58.3,29.87,East,90,4.0,4.0,94,0.00,,,0.00,77,Wunderground v.1.15,2017-02-19 14:10:00,
2017-02-19 08:20:00,60.2,58.5,29.87,East,84,3.0,3.0,94,0.00,,,0.00,81,Wunderground v.1.15,2017-02-19 14:20:00,
2017-02-19 08:25:00,60.4,58.7,29.87,East,90,2.0,3.0,94,0.00,,,0.00,97,Wunderground v.1.15,2017-02-19 14:25:00,
2017-02-19 08:30:00,60.5,58.8,29.87,ESE,108,2.0,2.0,94,0.00,,,0.00,79,Wunderground v.1.15,2017-02-19 14:30:00,
2017-02-19 08:40:00,60.7,59.0,29.87,ESE,106,4.0,5.0,94,0.00,,,0.00,54,Wunderground v.1.15,2017-02-19 14:40:00,
2017-02-19 08:45:00,60.8,59.1,29.87,ESE,115,4.0,5.0,94,0.00,,,0.00,84,Wunderground v.1.15,2017-02-19 14:45:00,
2017-02-19 08:55:00,61.1,59.4,29.88,ESE,113,3.0,6.0,94,0.00,,,0.00,77,Wunderground v.1.15,2017-02-19 14:55:00,
2017-02-19 09:00:00,61.3,59.6,29.88,ESE,115,4.0,5.0,94,0.00,,,0.00,84,Wunderground v.1.15,2017-02-19 15:00:00,
2017-02-19 09:05:00,61.4,59.7,29.88,SE,129,5.0,7.0,94,0.00,,,0.00,104,Wunderground v.1.15,2017-02-19 15:05:00,
2017-02-19 09:15:00,62.0,60.3,29.87,SE,128,5.0,6.0,94,0.00,,,0.00,185,Wunderground v.1.15,2017-02-19 15:15:00,
2017-02-19 09:25:00,62.7,60.9,29.87,SSE,156,5.0,6.0,94,0.00,,,0.00,151,Wunderground v.1.15,2017-02-19 15:25:00,